User: anonymous   Login
Location: Larkspur
(54.4391°N, 113.7691°W)
Time: 03:45:25
(UTC+00:00)
Language:

YUBILEINY - Orbit

View from above orbital plane
View from above orbital plane
View from above satellite
View from above satellite

Ground track
Ground track

The orbit data is extracted from the following two-line orbital elements,

1 32953U 08025A   23340.75664636  .00000019  00000-0  67362-4 0  9990
2 32953  82.5038 209.7635 0019167 165.7538 194.4086 12.43132972705098
Epoch (UTC): 06 December 2023 18:09:34
Eccentricity: 0.0019167
inclination: 82.5038°
perigee height: 1478 km
apogee height: 1508 km
right ascension of ascending node: 209.7635°
argument of perigee: 165.7538°
revolutions per day: 12.43132972
mean anomaly at epoch: 194.4086°
orbit number at epoch: 70509

The dashed part of the orbit path shows where the satellite is in the earth's shadow,  

DLR